Skip Page Navigation
NASA JPL Caltech
NASA Logo - Jet Propulsion Laboratory + View the NASA Portal
+ Center for Near-Earth Object Studies
JPL Home Earth Solar System Stars & Galaxies Technology
JPL Solar System Dynamics
BODIES ORBITS EPHEMERIDES TOOLS PHYSICAL DATA DISCOVERY FAQ SITE MAP
IMPORTANT: The SSD Announcement email list is now available. Major changes are coming in the near future, including possible hostname and/or URL changes. To be notified of such changes, subscribe to this email list.

Please visit this page for more details.


JPL Small-Body Database Browser
Search: [ help ]  
(2014 YP34)
Classification: Apollo [NEO]          SPK-ID: 3703075
Ephemeris | Orbit Diagram | Orbital Elements | Mission Design | Physical Parameters | Close-Approach Data ]

[ hide orbit diagram ]

For accurate long-term ephemerides, please instead use our Horizons system.This orbit viewer was implemented using two-body methods, and hence should not be used for determining accurate long-term trajectories (over several years or decades) or planetary encounter circumstances.


[ revert to old Java-based viewer ]

Orbital Elements at Epoch 2458600.5 (2019-Apr-27.0) TDB
Reference: JPL 9 (heliocentric ecliptic J2000)
 Element Value Uncertainty (1-sigma)   Units 
e .4074646956514343 0.00057942  
a 1.661983118594716 0.0016283 au
q .9847836729986985 1.9333e-06 au
i 6.691881665790233 0.0077984 deg
node 95.37244157481398 0.00084554 deg
peri 25.98420835852858 0.0017223 deg
M 356.9195723579107 1.0537 deg
tp 2458607.196484226910
(2019-May-03.69648423)
2.3005 TDB
period 782.5972890090155
2.14
1.1501
0.003149
d
yr
n .4600067046690891 0.00067605 deg/d
Q 2.339182564190734 0.0022918 au
  Orbit Determination Parameters
   # obs. used (total)      33  
   data-arc span      7 days  
   first obs. used      2014-12-28  
   last obs. used      2015-01-04  
   planetary ephem.      DE431  
   SB-pert. ephem.      SB431-N16  
   condition code      7  
   norm. resid. RMS      .51706  
   source      ORB  
   producer      Otto Matic  
   solution date      2017-Apr-06 08:36:40  

Additional Information
 Earth MOID = .0225687 au 
 Jupiter MOID = 2.7643 au 
 T_jup = 4.156 
[ show covariance matrix ]

Ephemeris | Orbit Diagram | Orbital Elements | Mission Design | Physical Parameters | Close-Approach Data ]

Physical Parameter Table
Parameter Symbol Value Units Sigma Reference Notes
absolute magnitude H 26.1   n/a MPCxxxxx  

[ show close-approach data ]
Ephemeris | Orbit Diagram | Orbital Elements | Mission Design | Physical Parameters | Close-Approach Data ]
ABOUT SSD CREDITS/AWARDS PRIVACY/COPYRIGHT GLOSSARY LINKS
FirstGov
(server date/time)  
NASA Home Page
Site Manager:   Ryan S. Park
Webmaster  Alan B. Chamberlin